DW7403 Weather Reports


time (UTC)temp
F
wind
direction
speed
knots
gust
knots
rain 1hr
in
rain 24hr
in
rain mn
in
humidity
%
barometer
mb
20260510203731 66 248 0.9 4.3 0.00 0.00 0.00 41 1016.3
20260510200738 67 175 0.0 2.6 0.00 0.00 0.00 43 1016.2
20260510193733 65 334 1.7 7.0 0.00 0.00 0.00 43 1016.4
20260510190743 64 300 2.6 8.7 0.00 0.00 0.00 45 1016.5
20260510183727 65 254 284.2 284.2 0.00 0.00 0.00 44 1015.8
20260510180728 65 333 2.6 5.2 0.00 0.00 0.00 45 1016.3
20260510170800 64 136 1.7 6.1 0.00 0.00 0.00 50 1016.0
20260510163746 63 26 0.9 5.2 0.00 0.00 0.00 56 1016.1
20260510160733 63 57 1.7 4.3 0.00 0.00 0.00 58 1015.9
20260510153729 61 256 1.7 4.3 0.00 0.00 0.00 55 1015.5
20260510150743 61 249 0.0 0.9 0.00 0.00 0.00 57 1015.2
20260510143731 59 279 0.0 0.9 0.00 0.00 0.00 59 1014.9
20260510140737 58 340 0.0 0.9 0.00 0.00 0.00 62 1014.5
20260510133740 57 267 0.0 2.6 0.00 0.00 0.00 66 1014.3
20260510003729 68 165 0.0 0.0 0.00 0.14 0.11 60 1006.1
20260510000735 70 210 1.7 7.8 0.00 0.14 0.11 57 1005.7
20260509233728 71 246 3.5 7.0 0.00 0.14 0.11 55 1005.5
20260509230739 70 222 3.5 10.4 0.00 0.14 0.11 56 1005.3
20260509223727 72 205 4.3 8.7 0.00 0.14 0.11 54 1005.2
20260509220754 73 202 4.3 10.4 0.00 0.14 0.11 54 1005.1